Location: Newark
(39.0622°N, 106.5590°E)
Time: 10:34:50
(UTC+00:00)

S-56A Canister/Altair - Pass Details

Date: 25 January 2020
Orbit: 633 x 2499 km, 38.9° (Epoch: 22 February)

Event Time Altitude Azimuth Distance (km) Brightness Sun altitude
Rises 10:41:07 0° 204° (SSW) 4,875 12.3 -7.2°
Reaches altitude 10° 10:45:53 10° 189° (S) 3,500 11.3 -8.1°
Maximum altitude 10:51:18 19° 149° (SSE) 2,447 10.0 -9.1°
Drops below altitude 10° 10:55:37 10° 107° (ESE) 2,683 9.8 -9.9°
Enters shadow 10:56:13 - 102° (ESE) 2,797 9.9 -10.0°
